Time,TemperatureF,DewpointF,PressureIn,WindDirection,WindDirectionDegrees,WindSpeedMPH,WindSpeedGustMPH,Humidity,HourlyPrecipIn,Conditions,Clouds,dailyrainin,SoftwareType,DateUTC
2013-05-23 00:02:00,40.0,17.0,-100.00,SE,136,1.0,5.0,39,-99.99,,,-99.99,,2013-05-23 07:02:00,
2013-05-23 00:11:00,40.0,17.0,-100.00,SE,136,1.0,5.0,39,-99.99,,,-99.99,,2013-05-23 07:11:00,
2013-05-23 00:21:00,39.0,20.0,-100.00,ESE,121,0.0,2.0,46,-99.99,,,-99.99,,2013-05-23 07:21:00,
2013-05-23 00:31:00,40.0,12.0,-100.00,East,96,3.0,5.0,32,-99.99,,,-99.99,,2013-05-23 07:31:00,
2013-05-23 00:42:00,40.0,12.0,-100.00,East,96,3.0,5.0,32,-99.99,,,-99.99,,2013-05-23 07:42:00,
2013-05-23 00:59:00,39.0,12.0,-100.00,East,90,2.0,4.0,33,-99.99,,,-99.99,,2013-05-23 07:59:00,
2013-05-23 01:11:00,38.0,11.0,-100.00,East,100,3.0,5.0,33,-99.99,,,-99.99,,2013-05-23 08:11:00,
2013-05-23 01:21:00,38.0,13.0,-100.00,East,99,4.0,5.0,35,-99.99,,,-99.99,,2013-05-23 08:21:00,
2013-05-23 01:31:00,36.0,15.0,-100.00,North,354,1.0,2.0,41,-99.99,,,-99.99,,2013-05-23 08:31:00,
2013-05-23 01:41:00,36.0,15.0,-100.00,North,354,1.0,2.0,41,-99.99,,,-99.99,,2013-05-23 08:41:00,
2013-05-23 01:51:00,35.0,17.0,-100.00,NE,37,0.0,2.0,47,-99.99,,,-99.99,,2013-05-23 08:51:00,
2013-05-23 02:01:00,35.0,17.0,-100.00,NE,37,0.0,2.0,47,-99.99,,,-99.99,,2013-05-23 09:01:00,
2013-05-23 02:11:00,35.0,20.0,-100.00,ESE,121,2.0,4.0,55,-99.99,,,-99.99,,2013-05-23 09:11:00,
2013-05-23 02:21:00,35.0,21.0,-100.00,ESE,120,3.0,5.0,57,-99.99,,,-99.99,,2013-05-23 09:21:00,
2013-05-23 02:33:00,35.0,15.0,-100.00,ESE,104,3.0,6.0,44,-99.99,,,-99.99,,2013-05-23 09:33:00,
2013-05-23 02:42:00,35.0,14.0,-100.00,ESE,102,4.0,6.0,42,-99.99,,,-99.99,,2013-05-23 09:42:00,
2013-05-23 02:53:00,34.0,16.0,-100.00,ESE,117,4.0,6.0,46,-99.99,,,-99.99,,2013-05-23 09:53:00,
2013-05-23 03:02:00,34.0,16.0,-100.00,ESE,117,4.0,6.0,46,-99.99,,,-99.99,,2013-05-23 10:02:00,
2013-05-23 03:12:00,36.0,16.0,-100.00,ESE,102,3.0,5.0,43,-99.99,,,-99.99,,2013-05-23 10:12:00,
2013-05-23 03:22:00,36.0,16.0,-100.00,ESE,102,3.0,5.0,43,-99.99,,,-99.99,,2013-05-23 10:22:00,
2013-05-23 03:32:00,34.0,19.0,-100.00,ESE,119,2.0,5.0,55,-99.99,,,-99.99,,2013-05-23 10:32:00,
2013-05-23 03:42:00,34.0,19.0,-100.00,ESE,119,2.0,5.0,55,-99.99,,,-99.99,,2013-05-23 10:42:00,
2013-05-23 03:52:00,33.0,15.0,-100.00,ESE,113,3.0,5.0,48,-99.99,,,-99.99,,2013-05-23 10:52:00,
2013-05-23 04:02:00,33.0,15.0,-100.00,ESE,113,3.0,5.0,48,-99.99,,,-99.99,,2013-05-23 11:02:00,
2013-05-23 04:11:00,33.0,15.0,-100.00,ESE,113,3.0,5.0,48,-99.99,,,-99.99,,2013-05-23 11:11:00,
2013-05-23 04:21:00,33.0,15.0,-100.00,ESE,102,3.0,4.0,47,-99.99,,,-99.99,,2013-05-23 11:21:00,
2013-05-23 04:32:00,33.0,15.0,-100.00,ESE,102,3.0,4.0,47,-99.99,,,-99.99,,2013-05-23 11:32:00,
2013-05-23 04:41:00,32.0,15.0,-100.00,NE,52,1.0,4.0,48,-99.99,,,-99.99,,2013-05-23 11:41:00,
2013-05-23 04:52:00,32.0,15.0,-100.00,NE,52,1.0,4.0,48,-99.99,,,-99.99,,2013-05-23 11:52:00,
2013-05-23 05:01:00,30.0,16.0,-100.00,East,99,0.0,2.0,56,-99.99,,,-99.99,,2013-05-23 12:01:00,
2013-05-23 05:11:00,30.0,16.0,-100.00,East,99,0.0,2.0,56,-99.99,,,-99.99,,2013-05-23 12:11:00,
2013-05-23 05:21:00,30.0,21.0,-100.00,SW,216,1.0,3.0,68,-99.99,,,-99.99,,2013-05-23 12:21:00,
2013-05-23 05:32:00,30.0,19.0,-100.00,WSW,241,1.0,4.0,64,-99.99,,,-99.99,,2013-05-23 12:32:00,
2013-05-23 05:42:00,30.0,19.0,-100.00,WSW,241,1.0,4.0,64,-99.99,,,-99.99,,2013-05-23 12:42:00,
2013-05-23 05:52:00,31.0,20.0,-100.00,WNW,289,2.0,5.0,62,-99.99,,,-99.99,,2013-05-23 12:52:00,
2013-05-23 06:01:00,31.0,20.0,-100.00,West,281,2.0,5.0,63,-99.99,,,-99.99,,2013-05-23 13:01:00,
2013-05-23 06:11:00,30.0,17.0,-100.00,North,3,1.0,3.0,59,-99.99,,,-99.99,,2013-05-23 13:11:00,
2013-05-23 06:21:00,30.0,18.0,-100.00,NNE,21,0.0,2.0,60,-99.99,,,-99.99,,2013-05-23 13:21:00,
2013-05-23 06:31:00,30.0,21.0,-100.00,NNW,328,0.0,2.0,69,-99.99,,,-99.99,,2013-05-23 13:31:00,
2013-05-23 06:41:00,30.0,21.0,-100.00,NNW,328,0.0,2.0,69,-99.99,,,-99.99,,2013-05-23 13:41:00,
2013-05-23 06:52:00,33.0,20.0,-100.00,ESE,103,2.0,4.0,58,-99.99,,,-99.99,,2013-05-23 13:52:00,
2013-05-23 07:01:00,33.0,20.0,-100.00,ESE,103,2.0,4.0,58,-99.99,,,-99.99,,2013-05-23 14:01:00,
2013-05-23 07:11:00,33.0,20.0,-100.00,ESE,103,2.0,4.0,58,-99.99,,,-99.99,,2013-05-23 14:11:00,
2013-05-23 07:21:00,35.0,23.0,-100.00,SE,126,1.0,4.0,60,-99.99,,,-99.99,,2013-05-23 14:21:00,
2013-05-23 07:32:00,35.0,23.0,-100.00,SE,126,1.0,4.0,60,-99.99,,,-99.99,,2013-05-23 14:32:00,
2013-05-23 07:41:00,37.0,27.0,-100.00,WSW,254,2.0,5.0,66,-99.99,,,-99.99,,2013-05-23 14:41:00,
2013-05-23 07:52:00,37.0,27.0,-100.00,WSW,254,2.0,5.0,66,-99.99,,,-99.99,,2013-05-23 14:52:00,
2013-05-23 08:01:00,41.0,27.0,-100.00,WNW,295,1.0,5.0,56,-99.99,,,-99.99,,2013-05-23 15:01:00,
2013-05-23 08:21:00,42.0,23.0,-100.00,West,278,3.0,5.0,46,-99.99,,,-99.99,,2013-05-23 15:21:00,
2013-05-23 08:32:00,45.0,18.0,-100.00,WNW,299,3.0,6.0,34,-99.99,,,-99.99,,2013-05-23 15:32:00,
2013-05-23 08:42:00,45.0,18.0,-100.00,WNW,299,3.0,6.0,34,-99.99,,,-99.99,,2013-05-23 15:42:00,
2013-05-23 08:53:00,45.0,18.0,-100.00,WNW,299,3.0,6.0,34,-99.99,,,-99.99,,2013-05-23 15:53:00,
2013-05-23 09:03:00,47.0,16.0,-100.00,NNW,339,5.0,8.0,28,-99.99,,,-99.99,,2013-05-23 16:03:00,
2013-05-23 09:12:00,47.0,16.0,-100.00,NNW,339,5.0,8.0,28,-99.99,,,-99.99,,2013-05-23 16:12:00,
2013-05-23 09:22:00,48.0,16.0,-100.00,NNW,342,5.0,9.0,28,-99.99,,,-99.99,,2013-05-23 16:22:00,
2013-05-23 09:33:00,50.0,16.0,-100.00,NNW,337,3.0,6.0,25,-99.99,,,-99.99,,2013-05-23 16:33:00,
2013-05-23 09:42:00,50.0,16.0,-100.00,NNW,337,3.0,6.0,25,-99.99,,,-99.99,,2013-05-23 16:42:00,
2013-05-23 09:51:00,52.0,12.0,-100.00,WSW,243,3.0,7.0,20,-99.99,,,-99.99,,2013-05-23 16:51:00,
2013-05-23 09:52:00,51.0,15.0,-100.00,North,349,3.0,7.0,23,-99.99,,,-99.99,,2013-05-23 16:52:00,
2013-05-23 10:03:00,51.0,15.0,-100.00,North,349,3.0,7.0,23,-99.99,,,-99.99,,2013-05-23 17:03:00,
2013-05-23 10:11:00,51.0,15.0,-100.00,North,349,3.0,7.0,23,-99.99,,,-99.99,,2013-05-23 17:11:00,
2013-05-23 10:22:00,52.0,12.0,-100.00,WSW,243,3.0,7.0,20,-99.99,,,-99.99,,2013-05-23 17:22:00,
2013-05-23 10:33:00,52.0,12.0,-100.00,WSW,243,3.0,7.0,20,-99.99,,,-99.99,,2013-05-23 17:33:00,
2013-05-23 10:42:00,52.0,12.0,-100.00,WSW,243,3.0,7.0,20,-99.99,,,-99.99,,2013-05-23 17:42:00,
2013-05-23 20:53:00,53.0,24.0,-100.00,North,352,4.0,9.0,32,-99.99,,,-99.99,,2013-05-24 03:53:00,
2013-05-23 21:03:00,53.0,24.0,-100.00,North,352,4.0,9.0,32,-99.99,,,-99.99,,2013-05-24 04:03:00,
2013-05-23 21:12:00,53.0,22.0,-100.00,North,356,4.0,9.0,29,-99.99,,,-99.99,,2013-05-24 04:12:00,
2013-05-23 21:22:00,52.0,22.0,-100.00,North,352,4.0,9.0,30,-99.99,,,-99.99,,2013-05-24 04:22:00,
2013-05-23 21:33:00,49.0,25.0,-100.00,NW,323,2.0,5.0,38,-99.99,,,-99.99,,2013-05-24 04:33:00,
2013-05-23 21:42:00,49.0,25.0,-100.00,NW,323,2.0,5.0,38,-99.99,,,-99.99,,2013-05-24 04:42:00,
2013-05-23 21:52:00,49.0,22.0,-100.00,North,350,0.0,2.0,34,-99.99,,,-99.99,,2013-05-24 04:52:00,
2013-05-23 22:02:00,49.0,22.0,-100.00,NNE,14,1.0,4.0,34,-99.99,,,-99.99,,2013-05-24 05:02:00,
2013-05-23 22:12:00,47.0,25.0,-100.00,SE,134,2.0,4.0,42,-99.99,,,-99.99,,2013-05-24 05:12:00,
2013-05-23 22:22:00,47.0,25.0,-100.00,SE,136,1.0,3.0,43,-99.99,,,-99.99,,2013-05-24 05:22:00,
2013-05-23 22:32:00,46.0,22.0,-100.00,East,97,4.0,6.0,38,-99.99,,,-99.99,,2013-05-24 05:32:00,
2013-05-23 22:42:00,46.0,22.0,-100.00,East,97,4.0,6.0,38,-99.99,,,-99.99,,2013-05-24 05:42:00,
2013-05-23 22:52:00,44.0,22.0,-100.00,SE,127,4.0,8.0,42,-99.99,,,-99.99,,2013-05-24 05:52:00,
2013-05-23 23:01:00,44.0,22.0,-100.00,SE,127,4.0,8.0,42,-99.99,,,-99.99,,2013-05-24 06:01:00,
2013-05-23 23:12:00,43.0,24.0,-100.00,SE,133,0.0,3.0,46,-99.99,,,-99.99,,2013-05-24 06:12:00,
2013-05-23 23:21:00,43.0,24.0,-100.00,SE,133,0.0,3.0,46,-99.99,,,-99.99,,2013-05-24 06:21:00,
2013-05-23 23:32:00,43.0,24.0,-100.00,SE,133,0.0,3.0,46,-99.99,,,-99.99,,2013-05-24 06:32:00,
2013-05-23 23:41:00,42.0,19.0,-100.00,ESE,112,3.0,6.0,39,-99.99,,,-99.99,,2013-05-24 06:41:00,
2013-05-23 23:52:00,42.0,19.0,-100.00,ESE,112,3.0,6.0,39,-99.99,,,-99.99,,2013-05-24 06:52:00,